Location: Observatorio del Centro Ecologico de Sonora
(29.0667°N, 110.9333°W)
Time: 01:01:01
(UTC-07:00)

ISS - Visible Passes

Search period start: 20 January 2017 00:00
Search period end: 30 January 2017 00:00
Orbit: 399 x 410 km, 51.6° (Epoch: 20 January)

Date Brightness Start Highest point End Pass type
(mag) Time Alt. Az. Time Alt. Az. Time Alt. Az.
20 Jan -3.4 06:14:39 23° NW 06:16:31 90° NE 06:19:46 10° SE visible
21 Jan -1.6 05:25:00 32° ENE 05:25:00 32° ENE 05:27:20 10° ESE visible
22 Jan -2.2 06:08:08 25° WSW 06:08:26 26° SW 06:11:11 10° S visible
23 Jan -0.8 05:18:38 17° SSE 05:18:38 17° SSE 05:19:30 10° SSE visible
24 Jan -2.0 19:19:57 10° SSW 19:22:09 28° SSE 19:22:09 28° SSE visible
25 Jan -1.2 18:28:58 10° SSE 18:30:48 14° SE 18:32:37 10° E visible
25 Jan -0.6 20:04:05 10° WSW 20:05:21 19° W 20:05:21 19° W visible
26 Jan -3.3 19:11:28 10° SW 19:14:43 73° NW 19:15:46 39° NNE visible
27 Jan -2.8 18:19:22 10° SSW 18:22:29 43° SE 18:25:36 10° ENE visible
27 Jan -0.4 19:57:28 10° WNW 19:58:47 13° NW 19:58:47 13° NW visible
28 Jan -1.3 19:03:54 10° W 19:06:38 24° NW 19:09:01 12° NNE visible
